| time (UTC) | temp F | wind direction | speed knots | gust knots | rain 1hr in | rain 24hr in | rain mn in | humidity % | barometer mb |
| 20260506205204 | 57 | 0.0 | 0.0 | 0.00 | 0.00 | 0.00 | 10 | 1005.2 | |
| 20260506204204 | 58 | 0.0 | 0.0 | 0.00 | 0.00 | 0.00 | 10 | 1005.2 | |
| 20260506203204 | 57 | 0.0 | 0.0 | 0.00 | 0.00 | 0.00 | 10 | 1005.6 | |
| 20260506202204 | 58 | 0.0 | 0.0 | 0.00 | 0.00 | 0.00 | 10 | 1005.5 | |
| 20260506201204 | 58 | 0.0 | 0.0 | 0.00 | 0.00 | 0.00 | 10 | 1005.5 | |
| 20260506195204 | 59 | 0.0 | 0.0 | 0.00 | 0.00 | 0.00 | 10 | 1005.2 | |
| 20260506194204 | 60 | 0.0 | 0.0 | 0.00 | 0.00 | 0.00 | 10 | 1005.4 | |
| 20260506193204 | 61 | 0.0 | 0.0 | 0.00 | 0.00 | 0.00 | 92 | 1005.0 | |
| 20260506190204 | 62 | 0.0 | 0.0 | 0.00 | 0.00 | 0.00 | 99 | 1004.1 | |
| 20260506185204 | 62 | 0.0 | 0.0 | 0.00 | 0.00 | 0.00 | 10 | 1004.1 | |
| 20260506184204 | 62 | 0.0 | 0.0 | 0.00 | 0.00 | 0.00 | 10 | 1003.9 | |
| 20260506183204 | 63 | 0.0 | 0.0 | 0.00 | 0.00 | 0.00 | 10 | 1003.9 | |
| 20260506182203 | 63 | 0.0 | 0.0 | 0.00 | 0.00 | 0.00 | 98 | 1004.1 | |
| 20260506181204 | 63 | 0.0 | 0.0 | 0.00 | 0.00 | 0.00 | 10 | 1004.0 | |
| 20260506180204 | 63 | 0.0 | 0.0 | 0.00 | 0.00 | 0.00 | 98 | 1003.9 | |
| 20260506175204 | 64 | 0.0 | 0.0 | 0.00 | 0.00 | 0.00 | 88 | 1003.7 | |
| 20260506174204 | 64 | 0.0 | 0.0 | 0.00 | 0.00 | 0.00 | 85 | 1003.7 | |
| 20260506173204 | 64 | 0.0 | 0.0 | 0.00 | 0.00 | 0.00 | 84 | 1003.7 | |
| 20260506172204 | 64 | 0.0 | 0.0 | 0.00 | 0.00 | 0.00 | 89 | 1003.8 | |
| 20260506171217 | 64 | 0.0 | 0.0 | 0.00 | 0.00 | 0.00 | 85 | 1003.9 | |
| 20260506170204 | 64 | 0.0 | 0.0 | 0.00 | 0.00 | 0.00 | 79 | 1004.0 | |
| 20260506165204 | 63 | 0.0 | 0.0 | 0.00 | 0.00 | 0.00 | 81 | 1004.2 | |
| 20260506164204 | 64 | 0.0 | 0.0 | 0.00 | 0.00 | 0.00 | 77 | 1004.3 | |
| 20260506163204 | 67 | 0.0 | 0.0 | 0.00 | 0.00 | 0.00 | 62 | 1004.4 | |
| 20260506161211 | 71 | 0.0 | 0.0 | 0.00 | 0.00 | 0.00 | 49 | 1004.2 | |
| 20260506155210 | 72 | 0.0 | 0.0 | 0.00 | 0.00 | 0.00 | 48 | 1004.2 | |
| 20260506154210 | 71 | 0.0 | 0.0 | 0.00 | 0.00 | 0.00 | 47 | 1004.2 | |
| 20260506153210 | 71 | 0.0 | 0.0 | 0.00 | 0.00 | 0.00 | 46 | 1004.3 | |
| 20260506152214 | 72 | 0.0 | 0.0 | 0.00 | 0.00 | 0.00 | 44 | 1004.2 | |
| 20260506151210 | 73 | 0.0 | 0.0 | 0.00 | 0.00 | 0.00 | 43 | 1004.4 | |
| 20260506150211 | 74 | 0.0 | 0.0 | 0.00 | 0.00 | 0.00 | 40 | 1004.3 | |
| 20260506145210 | 75 | 0.0 | 0.0 | 0.00 | 0.00 | 0.00 | 42 | 1004.4 | |
| 20260506144210 | 74 | 0.0 | 0.0 | 0.00 | 0.00 | 0.00 | 41 | 1004.5 | |
| 20260506143210 | 73 | 0.0 | 0.0 | 0.00 | 0.00 | 0.00 | 44 | 1004.6 | |
| 20260506142212 | 74 | 0.0 | 0.0 | 0.00 | 0.00 | 0.00 | 42 | 1004.5 | |
| 20260506141210 | 74 | 0.0 | 0.0 | 0.00 | 0.00 | 0.00 | 43 | 1004.6 | |
| 20260506140223 | 74 | 0.0 | 0.0 | 0.00 | 0.00 | 0.00 | 46 | 1004.6 | |
| 20260506135210 | 72 | 0.0 | 0.0 | 0.00 | 0.00 | 0.00 | 44 | 1004.7 | |
| 20260506134210 | 72 | 0.0 | 0.0 | 0.00 | 0.00 | 0.00 | 47 | 1004.6 | |
| 20260506133212 | 73 | 0.0 | 0.0 | 0.00 | 0.00 | 0.00 | 46 | 1004.7 | |
| 20260506132210 | 74 | 0.0 | 0.0 | 0.00 | 0.00 | 0.00 | 46 | 1004.7 | |
| 20260506131210 | 74 | 0.0 | 0.0 | 0.00 | 0.00 | 0.00 | 47 | 1004.7 | |
| 20260506130210 | 74 | 0.0 | 0.0 | 0.00 | 0.00 | 0.00 | 46 | 1004.7 | |
| 20260506125210 | 73 | 0.0 | 0.0 | 0.00 | 0.00 | 0.00 | 46 | 1004.8 | |
| 20260506124211 | 72 | 0.0 | 0.0 | 0.00 | 0.00 | 0.00 | 49 | 1004.7 | |
| 20260506123210 | 73 | 0.0 | 0.0 | 0.00 | 0.00 | 0.00 | 46 | 1004.7 | |
| 20260506122210 | 73 | 0.0 | 0.0 | 0.00 | 0.00 | 0.00 | 46 | 1004.8 | |
| 20260506121210 | 72 | 0.0 | 0.0 | 0.00 | 0.00 | 0.00 | 48 | 1004.8 | |
| 20260506120210 | 72 | 0.0 | 0.0 | 0.00 | 0.00 | 0.00 | 47 | 1004.8 | |
| 20260506115210 | 73 | 0.0 | 0.0 | 0.00 | 0.00 | 0.00 | 48 | 1004.6 | |
| 20260506114210 | 72 | 0.0 | 0.0 | 0.00 | 0.00 | 0.00 | 48 | 1004.5 | |
| 20260506113449 | 72 | 0.0 | 0.0 | 0.00 | 0.00 | 0.00 | 52 | 1004.5 | |
| 20260506112210 | 72 | 0.0 | 0.0 | 0.00 | 0.00 | 0.00 | 53 | 1004.5 | |
| 20260506111210 | 71 | 0.0 | 0.0 | 0.00 | 0.00 | 0.00 | 52 | 1004.6 | |
| 20260506110731 | 71 | 0.0 | 0.0 | 0.00 | 0.00 | 0.00 | 54 | 1004.7 | |
| 20260506110202 | 70 | 0.0 | 0.0 | 0.00 | 0.00 | 0.00 | 53 | 1004.8 | |
| 20260506104235 | 70 | 0.0 | 0.0 | 0.00 | 0.00 | 0.00 | 54 | 1004.8 | |
| 20260506104210 | 71 | 0.0 | 0.0 | 0.00 | 0.00 | 0.00 | 55 | 1004.7 | |
| 20260506103202 | 70 | 0.0 | 0.0 | 0.00 | 0.00 | 0.00 | 57 | 1004.9 | |
| 20260506101232 | 70 | 0.0 | 0.0 | 0.00 | 0.00 | 0.00 | 57 | 1004.9 | |
| 20260506095202 | 69 | 0.0 | 0.0 | 0.00 | 0.00 | 0.00 | 58 | 1005.0 | |
| 20260506094202 | 69 | 0.0 | 0.0 | 0.00 | 0.00 | 0.00 | 61 | 1004.8 | |
| 20260506093202 | 67 | 0.0 | 0.0 | 0.00 | 0.00 | 0.00 | 63 | 1004.8 | |
| 20260506092202 | 67 | 0.0 | 0.0 | 0.00 | 0.00 | 0.00 | 63 | 1005.0 | |
| 20260506091218 | 67 | 0.0 | 0.0 | 0.00 | 0.00 | 0.00 | 64 | 1004.8 | |
| 20260506090202 | 68 | 0.0 | 0.0 | 0.00 | 0.00 | 0.00 | 63 | 1004.7 | |
| 20260506085202 | 67 | 0.0 | 0.0 | 0.00 | 0.00 | 0.00 | 66 | 1004.4 | |
| 20260506084202 | 67 | 0.0 | 0.0 | 0.00 | 0.00 | 0.00 | 63 | 1004.4 | |
| 20260506083202 | 66 | 0.0 | 0.0 | 0.00 | 0.00 | 0.00 | 67 | 1004.4 | |
| 20260506082203 | 66 | 0.0 | 0.0 | 0.00 | 0.00 | 0.00 | 65 | 1004.5 | |
| 20260506081202 | 66 | 0.0 | 0.0 | 0.00 | 0.00 | 0.00 | 67 | 1004.4 | |
| 20260506080203 | 65 | 0.0 | 0.0 | 0.00 | 0.00 | 0.00 | 68 | 1004.4 | |
| 20260506073202 | 64 | 0.0 | 0.0 | 0.00 | 0.00 | 0.00 | 68 | 1004.4 | |
| 20260506071417 | 64 | 0.0 | 0.0 | 0.00 | 0.00 | 0.00 | 70 | 1004.3 | |
| 20260506071202 | 63 | 0.0 | 0.0 | 0.00 | 0.00 | 0.00 | 71 | 1004.3 | |
| 20260506062202 | 60 | 0.0 | 0.0 | 0.00 | 0.00 | 0.00 | 75 | 1004.1 | |
| 20260506061203 | 60 | 0.0 | 0.0 | 0.00 | 0.00 | 0.00 | 76 | 1003.9 | |
| 20260506060204 | 60 | 0.0 | 0.0 | 0.00 | 0.00 | 0.00 | 76 | 1003.8 | |
| 20260506051202 | 58 | 0.0 | 0.0 | 0.00 | 0.00 | 0.00 | 79 | 1003.9 | |
| 20260506050202 | 57 | 0.0 | 0.0 | 0.00 | 0.00 | 0.00 | 79 | 1003.8 | |
| 20260506044202 | 57 | 0.0 | 0.0 | 0.00 | 0.00 | 0.00 | 78 | 1003.7 | |
| 20260506043202 | 57 | 0.0 | 0.0 | 0.00 | 0.00 | 0.00 | 77 | 1003.8 | |
| 20260506041210 | 57 | 0.0 | 0.0 | 0.00 | 0.00 | 0.00 | 76 | 1003.7 | |
| 20260506035201 | 57 | 0.0 | 0.0 | 0.00 | 0.00 | 0.00 | 74 | 1003.6 | |
| 20260506034211 | 58 | 0.0 | 0.0 | 0.00 | 0.00 | 0.00 | 72 | 1003.6 | |
| 20260506033207 | 58 | 0.0 | 0.0 | 0.00 | 0.00 | 0.00 | 71 | 1003.5 | |
| 20260506032201 | 58 | 0.0 | 0.0 | 0.00 | 0.00 | 0.00 | 70 | 1003.5 | |
| 20260506031201 | 58 | 0.0 | 0.0 | 0.00 | 0.00 | 0.00 | 69 | 1003.6 | |
| 20260506030201 | 58 | 0.0 | 0.0 | 0.00 | 0.00 | 0.00 | 68 | 1003.5 | |
| 20260506025206 | 59 | 0.0 | 0.0 | 0.00 | 0.00 | 0.00 | 68 | 1003.5 | |
| 20260506024201 | 58 | 0.0 | 0.0 | 0.00 | 0.00 | 0.00 | 67 | 1003.6 | |
| 20260506023214 | 58 | 0.0 | 0.0 | 0.00 | 0.00 | 0.00 | 67 | 1003.7 | |
| 20260506022201 | 58 | 0.0 | 0.0 | 0.00 | 0.00 | 0.00 | 66 | 1003.6 | |
| 20260506021216 | 59 | 0.0 | 0.0 | 0.00 | 0.00 | 0.00 | 65 | 1003.6 | |
| 20260506020201 | 59 | 0.0 | 0.0 | 0.00 | 0.00 | 0.00 | 63 | 1003.6 | |
| 20260506015215 | 59 | 0.0 | 0.0 | 0.00 | 0.00 | 0.00 | 63 | 1003.6 | |
| 20260506014201 | 59 | 0.0 | 0.0 | 0.00 | 0.00 | 0.00 | 63 | 1003.5 | |
| 20260506013201 | 59 | 0.0 | 0.0 | 0.00 | 0.00 | 0.00 | 62 | 1003.5 | |
| 20260506012201 | 60 | 0.0 | 0.0 | 0.00 | 0.00 | 0.00 | 62 | 1003.7 | |
| 20260506011201 | 60 | 0.0 | 0.0 | 0.00 | 0.00 | 0.00 | 60 | 1003.6 | |
| 20260506010217 | 60 | 0.0 | 0.0 | 0.00 | 0.00 | 0.00 | 61 | 1003.5 | |
| 20260506005201 | 60 | 0.0 | 0.0 | 0.00 | 0.00 | 0.00 | 62 | 1003.6 | |
| 20260506004205 | 59 | 0.0 | 0.0 | 0.00 | 0.00 | 0.00 | 63 | 1003.7 | |
| 20260506003201 | 59 | 0.0 | 0.0 | 0.00 | 0.00 | 0.00 | 62 | 1003.8 | |
| 20260506002214 | 57 | 0.0 | 0.0 | 0.00 | 0.00 | 0.00 | 69 | 1003.8 | |
| 20260506001201 | 56 | 0.0 | 0.0 | 0.00 | 0.00 | 0.00 | 72 | 1003.9 | |
| 20260506000205 | 56 | 0.0 | 0.0 | 0.00 | 0.00 | 0.00 | 72 | 1004.0 | |
| 20260505235202 | 57 | 0.0 | 0.0 | 0.00 | 0.00 | 0.00 | 72 | 1004.0 | |
| 20260505234201 | 57 | 0.0 | 0.0 | 0.00 | 0.00 | 0.00 | 69 | 1003.9 | |
| 20260505233204 | 58 | 0.0 | 0.0 | 0.00 | 0.00 | 0.00 | 68 | 1004.0 | |
| 20260505232044 | 57 | 0.0 | 0.0 | 0.00 | 0.00 | 0.00 | 73 | 1004.2 | |
| 20260505231201 | 57 | 0.0 | 0.0 | 0.00 | 0.00 | 0.00 | 76 | 1004.3 | |
| 20260505230214 | 58 | 0.0 | 0.0 | 0.00 | 0.00 | 0.00 | 79 | 1004.3 | |
| 20260505225210 | 58 | 0.0 | 0.0 | 0.00 | 0.00 | 0.00 | 77 | 1004.2 | |
| 20260505224201 | 58 | 0.0 | 0.0 | 0.00 | 0.00 | 0.00 | 74 | 1004.3 | |
| 20260505223215 | 58 | 0.0 | 0.0 | 0.00 | 0.00 | 0.00 | 72 | 1004.4 | |
| 20260505221216 | 58 | 0.0 | 0.0 | 0.00 | 0.00 | 0.00 | 71 | 1004.5 | |
| 20260505215200 | 60 | 0.0 | 0.0 | 0.00 | 0.00 | 0.00 | 64 | 1004.5 | |
| 20260505214200 | 61 | 0.0 | 0.0 | 0.00 | 0.00 | 0.00 | 63 | 1004.4 | |
| 20260505213214 | 61 | 0.0 | 0.0 | 0.00 | 0.00 | 0.00 | 63 | 1004.4 | |
| 20260505212200 | 61 | 0.0 | 0.0 | 0.00 | 0.00 | 0.00 | 62 | 1004.5 | |
| 20260505211200 | 61 | 0.0 | 0.0 | 0.00 | 0.00 | 0.00 | 58 | 1004.5 | |
| 20260505210217 | 62 | 0.0 | 0.0 | 0.00 | 0.00 | 0.00 | 52 | 1004.5 |